Weather History for Monticello, AR

Change the Weather History Date:

Saturday, December 29, 2012

  Actual Average Record
Temperature  
Mean Temperature 33 °F -  
Max Temperature 39 °F 51 °F 73 °F (1984)
Min Temperature 26 °F 31 °F 13 °F (1983)
Degree Days  
Heating Degree Days 32    
Moisture  
Dew Point 25 °F    
Average Humidity 69    
Maximum Humidity 87    
Minimum Humidity 45    
Precipitation  
Precipitation 0.00 in - - ()
Sea Level Pressure  
Sea Level Pressure 30.26 in    
Wind  
Wind Speed 8 mph (WNW)    
Max Wind Speed 13 mph    
Max Gust Speed 22 mph    
Visibility 10 miles    
Events      
Averages and records for this station are not official NWS values.
T = Trace of Precipitation, MM = Missing Value Source: NWS Daily Summary

Daily Weather History Graph

Daily Weather History Graph

Search for Another Location

Airport:

Trip Planner

Search our weather history database for the weather conditions in past years. The results will help you decide how hot, cold, wet, or windy it might be!

Date:

Astronomy

Dec. 29, 2012 Rise Set
Actual Time 7:10 AM CST 5:07 PM CST
Civil Twilight 6:43 AM CST 5:35 PM CST
Nautical Twilight 6:12 AM CST 6:06 PM CST
Astronomical Twilight 5:41 AM CST 6:36 PM CST
Moon 6:36 PM CST (12/29) 7:48 AM CST (12/29)
Length of Visible Light 10h 52m
Length of Day
9h 56m
Full, 98% of the Moon is Illuminated
Dec 29
Full
Jan 4
Last Quarter
Jan 11
New
Jan 18
First Quarter
Jan 26
Full

Hourly Weather History & Observations

Time (CST) Temp. Windchill Dew Point Humidity Pressure Visibility Wind Dir Wind Speed Gust Speed Precip Events Conditions
12:32 AM 37.4 °F 31.4 °F 33.8 °F 87% 30.05 in 10.0 mi WNW 8.1 mph - N/A   Overcast
12:53 AM 37.9 °F 30.5 °F 33.1 °F 83% 30.06 in 10.0 mi WNW 11.5 mph 19.6 mph N/A   Overcast
1:24 AM 37.4 °F 29.8 °F 33.8 °F 87% 30.06 in 10.0 mi WNW 11.5 mph - N/A   Overcast
1:53 AM 37.0 °F 29.8 °F 32.0 °F 82% 30.08 in 10.0 mi WNW 10.4 mph - N/A   Overcast
2:53 AM 37.0 °F 30.4 °F 32.0 °F 82% 30.11 in 10.0 mi West 9.2 mph - N/A   Overcast
3:53 AM 36.0 °F 28.5 °F 30.0 °F 79% 30.13 in 10.0 mi West 10.4 mph - N/A   Overcast
4:08 AM 35.6 °F 29.9 °F 30.2 °F 81% 30.13 in 10.0 mi West 6.9 mph 16.1 mph N/A   Overcast
4:53 AM 35.1 °F 28.6 °F 28.9 °F 78% 30.14 in 10.0 mi West 8.1 mph - N/A   Overcast
5:01 AM 35.6 °F 28.6 °F 28.4 °F 75% 30.15 in 10.0 mi West 9.2 mph - N/A   Overcast
6:53 AM 30.9 °F 22.8 °F 26.1 °F 82% 30.21 in 10.0 mi West 9.2 mph - N/A   Partly Cloudy
7:53 AM 30.9 °F 22.2 °F 24.1 °F 76% 30.24 in 10.0 mi WNW 10.4 mph - N/A   Clear
8:53 AM 33.1 °F 23.9 °F 24.1 °F 70% 30.25 in 10.0 mi WNW 12.7 mph - N/A   Clear
9:53 AM 34.0 °F 25.0 °F 21.0 °F 59% 30.29 in 10.0 mi NW 12.7 mph 21.9 mph N/A   Clear
10:53 AM 36.0 °F 28.5 °F 21.9 °F 57% 30.30 in 10.0 mi WNW 10.4 mph 16.1 mph N/A   Clear
11:53 AM 37.9 °F 30.9 °F 21.9 °F 53% 30.28 in 10.0 mi WNW 10.4 mph 18.4 mph N/A   Clear
12:53 PM 39.0 °F 31.4 °F 21.0 °F 49% 30.28 in 10.0 mi NW 12.7 mph 20.7 mph N/A   Clear
1:53 PM 39.9 °F 32.5 °F 21.0 °F 47% 30.29 in 10.0 mi WNW 12.7 mph 20.7 mph N/A   Clear
2:53 PM 39.9 °F 33.4 °F 19.9 °F 45% 30.31 in 10.0 mi NW 10.4 mph 18.4 mph N/A   Clear
3:53 PM 39.9 °F 34.5 °F 21.0 °F 47% 30.33 in 10.0 mi WNW 8.1 mph - N/A   Clear
4:53 PM 37.9 °F 35.5 °F 19.9 °F 48% 30.35 in 10.0 mi NNW 3.5 mph - N/A   Clear
5:53 PM 35.1 °F - 19.9 °F 54% 30.38 in 10.0 mi Calm Calm - N/A   Clear
6:53 PM 30.9 °F - 21.9 °F 69% 30.41 in 10.0 mi Calm Calm - N/A   Clear
7:53 PM 30.0 °F - 21.0 °F 69% 30.42 in 10.0 mi Calm Calm - N/A   Clear
8:53 PM 30.9 °F - 21.0 °F 67% 30.43 in 10.0 mi Calm Calm - N/A   Clear
9:53 PM 27.0 °F - 21.9 °F 81% 30.44 in 10.0 mi Calm Calm - N/A   Clear
10:53 PM 27.0 °F - 21.0 °F 78% 30.45 in 10.0 mi Calm Calm - N/A   Clear
11:53 PM 26.1 °F - 21.0 °F 81% 30.45 in 10.0 mi Calm Calm - N/A   Clear